Location: ???????
(55.4362°N, 38.1183°E)
Time: 18:19:20
(UTC+00:00)

USA 215 - Pass Details

Date: 17 June 2021
Orbit: 1100 x 1107 km, 123.0° (Epoch: 22 June)

Event Time Altitude Azimuth Distance (km) Brightness Sun altitude
Rises 20:46:53 0° 64° (ENE) 3,925 6.4 -10.7°
Reaches altitude 10° 20:49:27 10° 68° (ENE) 2,964 5.7 -10.7°
Maximum altitude 20:55:51 55° 146° (SE) 1,303 3.4 -10.9°
Drops below altitude 10° 21:02:15 10° 224° (SW) 2,955 5.1 -11.0°
Sets 21:04:47 0° 228° (SW) 3,911 5.8 -11.0°
